[[{"header":{"parameterUnit":"m.s-1","parameterCategory":2,"la1":30.2991,"la2":30.254,"lo1":-89.0895,"lo2":-89.0444,"dy":0.0017,"dx":0.0017,"nx":28,"ny":28,"refTime":"2023-10-19T03:00:00:Z","depth":"0","parameterNumber":2,"parameterNumberName":"U-component_of_CURRENTS"},"data":[0,0,0,0,0,0,0,0,0,0,0,0,0,0,0,0,0,0,0,0,0,0,0,0,0,0,0,0,0,0,0,0,0,0,0,0,0,0,0,0,0,0,0,0,0,0,0,0,0,0,0,0,0,0,0,0,0,0,0.4123,0.4123,0,0.416,0.416,0.4161,0.4148,0.4147,0.4146,0.4146,0.4142,0.4143,0.4144,0,0,0,0,0,0,0,0,0,0,0,0,0,0.4126,0.4126,0.4123,0.4123,0.4124,0.416,0.416,0.4161,0.4148,0.4147,0.4146,0.4145,0.4142,0.4143,0.4144,0,0,0,0,0,0,0,0,0,0,0,0,0,0.414,0.4126,0.4123,0.4122,0.4122,0.416,0.416,0.4161,0.4148,0.4147,0.4146,0.4145,0.4142,0.4143,0.4144,0.4176,0,0,0.4147,0.4148,0,0,0,0,0,0,0,0,0.414,0.414,0.4121,0.4122,0.4122,0.4148,0.416,0.4164,0.4149,0.4139,0.4146,0.4144,0.4141,0.4142,0.4153,0.4176,0.4176,0.4147,0.4148,0.4148,0.4149,0,0,0,0,0,0,0,0.4138,0.4139,0.4138,0.4122,0.4122,0.4148,0.4148,0.4162,0.4146,0.414,0.4139,0.4142,0.4141,0.4152,0.4153,0.4176,0.4147,0.4148,0.4149,0.4149,0.4226,0.4227,0,0,0,0,0,0,0.413,0.4138,0.4137,0.4139,0.4127,0.4149,0.4149,0.4141,0.4147,0.4147,0.4143,0.4142,0.4151,0.4152,0.4153,0.4229,0.4148,0.4149,0.415,0.4225,0.4226,0.4228,0,0,0,0,0,0,0.413,0.4129,0.4135,0.414,0.4142,0.4149,0.4142,0.4142,0.4158,0.415,0.4149,0.4157,0.415,0.4151,0.4165,0.4227,0.415,0.4151,0.4223,0.4225,0.4227,0.4357,0,0,0,0,0,0,0.4129,0.4128,0.4131,0.4139,0.4142,0.4174,0.4143,0.4144,0.4161,0.4159,0.4162,0.416,0.4149,0.4164,0.4166,0.4227,0.4152,0.4221,0.4224,0.4226,0.4351,0.4363,0.4373,0,0,0,0,0,0.4129,0.4138,0.4131,0.4131,0.414,0.4176,0.4181,0.4182,0.4163,0.4187,0.4173,0.416,0.4182,0.4166,0.4168,0.4231,0.422,0.4223,0.4226,0.4345,0.436,0.4373,0,0,0,0,0,0,0.4136,0.4138,0.413,0.4136,0.4161,0.4174,0.42,0.4192,0.4202,0.4196,0.4176,0.4175,0.4219,0.4195,0.4177,0.4256,0.4201,0.4205,0.429,0.4304,0.4316,0.4391,0.4153,0,0,0,0,0,0.414,0.4149,0.4158,0.4167,0.4184,0.4193,0.4208,0.4208,0.4214,0.4218,0.4217,0.4215,0.4237,0.4242,0.4255,0.4293,0.4322,0.4332,0.4344,0.4354,0.4415,0.4516,0.4545,0.4238,0.4238,0.4238,0,0,0.4141,0.4148,0.415,0.4171,0.4192,0.4232,0.4201,0.4234,0.4273,0.4217,0.4268,0.4262,0.4255,0.4306,0.4323,0.4291,0.4444,0.4358,0.4367,0.4424,0.4523,0.4554,0.4581,0.424,0.424,0.424,0,0,0.4167,0.4164,0.4189,0.4219,0.4254,0.4268,0.4279,0.4302,0.4323,0.4361,0.434,0.4379,0.4382,0.4418,0.4428,0.451,0.4507,0.4489,0.461,0.4707,0.4735,0.476,0.4794,0.4821,0.4488,0.4489,0.4489,0,0.4169,0.4197,0.4206,0.4251,0.4284,0.4287,0.4335,0.4369,0.439,0.4431,0.4391,0.4469,0.4459,0.4557,0.4586,0.4549,0.4573,0.456,0.4728,0.4754,0.4777,0.4807,0.4835,0.4495,0.4494,0.4494,0.4493,0,0.4222,0.425,0.4277,0.433,0.4373,0.4415,0.446,0.451,0.4524,0.4554,0.4651,0.4652,0.4704,0.4701,0.4674,0.483,0.478,0.4739,0.4706,0.4818,0.4838,0.4866,0.4505,0.4502,0.45,0.4499,0,0,0.4198,0.4292,0.4298,0.4343,0.4416,0.4455,0.4552,0.4643,0.4717,0.4758,0.4868,0.4926,0.4934,0.4949,0.4926,0.5013,0.5176,0.4956,0.4958,0.5013,0.5357,0.5178,0.5189,0.5164,0.5171,0.5176,0.529,0,0.4234,0.4325,0.4366,0.4459,0.4515,0.4574,0.4663,0.475,0.4819,0.4926,0.4987,0.5067,0.5022,0.505,0.5145,0.5176,0.5262,0.5148,0.5224,0.5226,0.5074,0.5222,0.4998,0.5071,0.5317,0.5321,0.5325,0,0.4257,0.4328,0.4422,0.4538,0.4569,0.4625,0.4781,0.4862,0.5021,0.508,0.5199,0.5231,0.5383,0.5309,0.5485,0.541,0.5421,0.5435,0.5438,0.5264,0.5101,0.5006,0.5111,0.5048,0.5367,0.5363,0.536,0,0.4235,0.4353,0.4432,0.4472,0.4611,0.4677,0.4753,0.4908,0.4996,0.519,0.5267,0.5432,0.5506,0.5604,0.5628,0.5579,0.5795,0.571,0.5563,0.5546,0.5373,0.533,0.5456,0.5868,0.5867,0.5867,0.5867,0,0.4245,0.4305,0.4426,0.4473,0.4579,0.4678,0.4804,0.4915,0.508,0.5177,0.5335,0.5434,0.5593,0.5703,0.572,0.5731,0.5869,0.5647,0.5601,0.5398,0.5359,0.5303,0.5269,0.5871,0.587,0.587,0.5869,0,0.4214,0.4281,0.438,0.4527,0.4566,0.4647,0.4796,0.4886,0.5054,0.5195,0.526,0.5484,0.5614,0.5723,0.587,0.581,0.5699,0.581,0.5529,0.5448,0.5189,0.5166,0.5034,0.4895,0.5678,0.5675,0.5672,0,0.4212,0.4267,0.4398,0.4428,0.4489,0.4607,0.4674,0.4854,0.4942,0.5184,0.524,0.544,0.5499,0.566,0.5643,0.5661,0.5573,0.5459,0.5332,0.5206,0.5151,0.4949,0.4828,0.514,0.5134,0.5128,0.5124,0,0.4234,0.4268,0.4337,0.4387,0.4446,0.4526,0.4631,0.469,0.4882,0.4977,0.5095,0.5167,0.5317,0.5256,0.5306,0.5288,0.5209,0.5336,0.5324,0.4864,0.4544,0.4372,0.5,0.5074,0.5079,0.5082,0.5085,0.5087,0.4223,0.4252,0.4293,0.4319,0.4367,0.4378,0.4354,0.4451,0.4512,0.4541,0.4793,0.4783,0.4925,0.4939,0.4909,0.4798,0.4787,0.4697,0.4717,0.4552,0.4313,0.4794,0.4729,0.4732,0.4735,0.4737,0.4739,0,0.4145,0.4163,0.4208,0.4182,0.4121,0.4208,0.425,0.4156,0.4076,0.4201,0.4214,0.4316,0.428,0.4403,0.4411,0.4272,0.4059,0.42,0.3945,0.3886,0.4447,0.432,0.402,0.402,0.402,0.402,0.402,0.402,0.4098,0.4065,0.4064,0.3907,0.3871,0.3721,0.3677,0.357,0.359,0.3499,0.3526,0.3658,0.4041,0.4188,0.4121,0.4004,0.3777,0.3532,0.3591,0.4093,0.4142,0.419,0.4069,0.372,0.3719,0.2843,0.2837,0.2833]},{"header":{"parameterUnit":"m.s-1","parameterCategory":2,"la1":30.2991,"la2":30.254,"lo1":-89.0895,"lo2":-89.0444,"dy":0.0017,"dx":0.0017,"nx":28,"ny":28,"refTime":"2023-10-19T03:00:00:Z","depth":"0","parameterNumber":3,"parameterNumberName":"V-component_of_CURRENTS"},"data":[0,0,0,0,0,0,0,0,0,0,0,0,0,0,0,0,0,0,0,0,0,0,0,0,0,0,0,0,0,0,0,0,0,0,0,0,0,0,0,0,0,0,0,0,0,0,0,0,0,0,0,0,0,0,0,0,0,0,0.0179,0.0179,0,0.0139,0.0138,0.0138,0.0093,0.0093,0.0092,0.0092,0.0015,0.0013,0.0012,0,0,0,0,0,0,0,0,0,0,0,0,0,0.0178,0.0178,0.0179,0.0179,0.0179,0.0139,0.0138,0.0138,0.0093,0.0093,0.0092,0.0092,0.0016,0.0014,0.0012,0,0,0,0,0,0,0,0,0,0,0,0,0,0.016,0.0178,0.0179,0.0154,0.0151,0.0139,0.0138,0.0137,0.0093,0.0093,0.0092,0.0092,0.0016,0.0014,0.0011,0.0008,0,0,0.0004,0.0003,0,0,0,0,0,0,0,0,0.0161,0.0159,0.0158,0.0155,0.0153,0.0123,0.011,0.0093,0.0094,0.0112,0.0092,0.0091,0.005,0.0045,0.0035,0.0005,0.0001,0.0003,0.0002,0.0001,0.0,0,0,0,0,0,0,0,0.0162,0.0161,0.016,0.0157,0.0154,0.0131,0.0128,0.0106,0.0082,0.0111,0.0108,0.0108,0.0048,0.0038,0.0033,0.0,0.0004,0.0001,-0.0,-0.0001,-0.0032,-0.0031,0,0,0,0,0,0,0.0175,0.0162,0.0162,0.016,0.0158,0.0132,0.0128,0.0131,0.0083,0.0076,0.0109,0.0106,0.0042,0.0036,0.003,0.0048,0.0001,-0.0001,-0.0003,-0.0032,-0.0031,-0.0031,0,0,0,0,0,0,0.0175,0.0176,0.0163,0.0162,0.0159,0.0133,0.0136,0.013,0.0125,0.0083,0.0074,0.011,0.0041,0.0034,0.0024,0.0044,-0.0003,-0.0005,-0.0033,-0.0032,-0.0031,0.0068,0,0,0,0,0,0,0.0176,0.0176,0.0183,0.0163,0.016,0.0174,0.0137,0.013,0.0127,0.0123,0.0081,0.0073,0.004,0.0028,0.0022,0.0039,-0.0007,-0.0034,-0.0033,-0.0031,0.0064,0.0072,0.0079,0,0,0,0,0,0.0176,0.0195,0.0183,0.0183,0.017,0.0175,0.0172,0.0149,0.0128,0.0138,0.0107,0.0075,0.0031,0.0027,0.0019,0.0037,-0.0035,-0.0033,-0.0032,0.006,0.0071,0.0079,0,0,0,0,0,0,0.0198,0.0192,0.0179,0.0194,0.0191,0.0169,0.0177,0.0158,0.0141,0.0134,0.0087,0.0078,0.0072,0.0042,0.0039,0.003,-0.0009,-0.0009,0.0064,0.0073,0.0081,0.0124,-0.0009,0,0,0,0,0,0.0207,0.0217,0.0208,0.022,0.0223,0.02,0.0198,0.0185,0.0167,0.0158,0.0127,0.0094,0.0072,0.0064,0.0036,0.0039,0.0014,0.0042,0.005,0.0057,0.0087,0.0079,0.009,-0.0026,-0.0026,-0.0026,0,0,0.0217,0.0216,0.022,0.0225,0.0218,0.0239,0.0197,0.0206,0.0221,0.0153,0.016,0.0119,0.0077,0.0076,0.0071,0.0056,0.0068,0.0059,0.0066,0.0092,0.0082,0.0094,0.0104,-0.0025,-0.0025,-0.0025,0,0,0.0252,0.0245,0.027,0.0275,0.0278,0.027,0.0279,0.0264,0.0257,0.0258,0.0211,0.0193,0.0155,0.0137,0.0121,0.0158,0.0106,0.0136,0.022,0.0213,0.0223,0.0232,0.0183,0.0187,0.0147,0.0147,0.0147,0,0.026,0.0296,0.0278,0.0308,0.0326,0.0292,0.0333,0.0322,0.0304,0.0316,0.0274,0.0238,0.019,0.0208,0.0213,0.0179,0.0153,0.0189,0.0226,0.0234,0.0241,0.019,0.0193,0.0152,0.0151,0.0151,0.015,0,0.0321,0.0347,0.0366,0.0393,0.041,0.0438,0.0433,0.0443,0.0423,0.0413,0.0419,0.0356,0.0346,0.0313,0.0272,0.0303,0.0258,0.0232,0.0209,0.0259,0.0201,0.0202,0.0159,0.0157,0.0156,0.0155,0,0,0.0342,0.0398,0.0405,0.0449,0.0462,0.0495,0.0523,0.0558,0.0604,0.0555,0.0611,0.0542,0.0512,0.0492,0.0434,0.0419,0.0418,0.0357,0.0354,0.0322,0.0378,0.0321,0.0316,0.0403,0.0405,0.0406,0.0305,0,0.0396,0.0485,0.0492,0.0581,0.0634,0.0626,0.0671,0.0692,0.0693,0.0734,0.0672,0.0691,0.0579,0.0586,0.0552,0.0472,0.0432,0.0447,0.0324,0.032,0.0275,0.032,0.0322,0.0232,0.0306,0.0306,0.0307,0,0.0459,0.0517,0.0617,0.0712,0.0736,0.078,0.0871,0.0907,0.0937,0.0938,0.0934,0.0888,0.0865,0.0762,0.0644,0.0662,0.0531,0.0443,0.0437,0.0362,0.0269,0.0198,0.0231,0.0023,0.0308,0.0308,0.0308,0,0.0519,0.061,0.0704,0.0731,0.082,0.0873,0.0926,0.0975,0.1046,0.1084,0.1138,0.1076,0.108,0.0929,0.0734,0.07,0.0596,0.0522,0.0334,0.0325,0.0294,0.0282,0.0131,0.043,0.043,0.043,0.0431,0,0.0587,0.0665,0.0746,0.0801,0.0941,0.0965,0.1109,0.1145,0.1226,0.1342,0.126,0.1329,0.1129,0.1037,0.0816,0.0595,0.0652,0.0367,0.0315,0.0322,0.0314,0.0104,-0.0012,0.0426,0.0427,0.0428,0.0429,0,0.0651,0.0691,0.0818,0.0929,0.0976,0.1084,0.1242,0.1349,0.1396,0.1548,0.1576,0.1546,0.1423,0.1183,0.095,0.0723,0.0371,0.0393,0.0394,0.0345,-0.004,-0.0149,-0.0359,-0.045,0.0172,0.017,0.0169,0,0.07,0.0765,0.092,0.1015,0.1075,0.1228,0.1345,0.1434,0.1554,0.1684,0.1774,0.171,0.1673,0.13,0.0907,0.0518,0.0312,0.0257,0.0186,-0.0041,-0.0201,-0.029,-0.0357,0.0158,0.0157,0.0156,0.0155,0,0.0803,0.0848,0.0957,0.1139,0.128,0.1446,0.1613,0.173,0.185,0.1963,0.2076,0.2053,0.1705,0.1334,0.0817,0.0541,0.0115,0.0218,0.0005,-0.0195,-0.032,-0.0438,0.0167,0.0144,0.0145,0.0146,0.0147,0.0147,0.0889,0.098,0.1111,0.129,0.1449,0.1636,0.1776,0.1942,0.2129,0.2283,0.2263,0.2256,0.1753,0.1045,0.0655,-0.0012,-0.0023,-0.0232,-0.0341,-0.0409,-0.0499,0.0065,-0.0026,-0.0026,-0.0026,-0.0026,-0.0026,0,0.0992,0.1089,0.1256,0.1457,0.1625,0.1691,0.1938,0.2066,0.2271,0.2407,0.2459,0.223,0.1568,0.0944,0.0037,-0.0467,-0.063,-0.0721,-0.0838,-0.0877,-0.0353,-0.0355,-0.0544,-0.0544,-0.0544,-0.0544,-0.0544,-0.0543,0.1052,0.1209,0.1283,0.156,0.1696,0.1913,0.2045,0.2227,0.2374,0.2517,0.2539,0.2519,0.2106,0.0435,-0.0683,-0.0945,-0.1244,-0.1349,-0.1496,-0.114,-0.1102,-0.1066,-0.1094,-0.1436,-0.1437,-0.1954,-0.1959,-0.1963]}],[{"header":{"parameterUnit":"m.s-1","parameterCategory":2,"la1":30.2991,"la2":30.254,"lo1":-89.0895,"lo2":-89.0444,"dy":0.0017,"dx":0.0017,"nx":28,"ny":28,"refTime":"2023-10-19T03:00:00:Z","depth":"2","parameterNumber":2,"parameterNumberName":"U-component_of_CURRENTS"},"data":[0,0,0,0,0,0,0,0,0,0,0,0,0,0,0,0,0,0,0,0,0,0,0,0,0,0,0,0,0,0,0,0,0,0,0,0,0,0,0,0,0,0,0,0,0,0,0,0,0,0,0,0,0,0,0,0,0,0,0.3437,0.3438,0,0.3514,0.3514,0.3515,0.3537,0.3537,0.3537,0.3537,0.3568,0.3569,0.357,0,0,0,0,0,0,0,0,0,0,0,0,0,0.3371,0.3372,0.3437,0.3438,0.3439,0.3513,0.3514,0.3515,0.3537,0.3537,0.3537,0.3536,0.3568,0.3569,0.357,0,0,0,0,0,0,0,0,0,0,0,0,0,0.3417,0.3372,0.3437,0.3461,0.3464,0.3513,0.3514,0.3515,0.3537,0.3537,0.3537,0.3536,0.3567,0.3569,0.357,0.3586,0,0,0.3575,0.3576,0,0,0,0,0,0,0,0,0.3414,0.3419,0.3456,0.3459,0.3463,0.3517,0.3503,0.3538,0.3537,0.3507,0.3537,0.3536,0.3549,0.3552,0.3564,0.3588,0.3589,0.3575,0.3576,0.3577,0.3577,0,0,0,0,0,0,0,0.3411,0.3416,0.3465,0.3457,0.3462,0.3489,0.3494,0.351,0.3526,0.351,0.3512,0.3524,0.355,0.3563,0.3565,0.359,0.3575,0.3577,0.3578,0.3578,0.3683,0.3685,0,0,0,0,0,0,0.3403,0.3413,0.3463,0.3468,0.344,0.349,0.3496,0.3498,0.3527,0.3532,0.3524,0.3525,0.356,0.3563,0.3566,0.365,0.3577,0.3578,0.3579,0.3681,0.3683,0.3685,0,0,0,0,0,0,0.3401,0.3406,0.346,0.3444,0.3453,0.3492,0.3494,0.35,0.3536,0.3539,0.3543,0.3557,0.356,0.3564,0.3595,0.3649,0.3579,0.3581,0.3679,0.3682,0.3684,0.3777,0,0,0,0,0,0,0.3399,0.3405,0.3415,0.3443,0.3454,0.3487,0.3495,0.3502,0.3544,0.3546,0.3568,0.3569,0.356,0.3592,0.3596,0.365,0.3582,0.3676,0.368,0.3683,0.3771,0.3782,0.3791,0,0,0,0,0,0.3396,0.3404,0.3415,0.3422,0.3463,0.3487,0.3495,0.352,0.3546,0.3554,0.3579,0.357,0.3617,0.3595,0.3599,0.3654,0.3675,0.3679,0.3683,0.3767,0.378,0.3791,0,0,0,0,0,0,0.3376,0.3408,0.3421,0.3437,0.3461,0.3492,0.3517,0.3539,0.3569,0.3584,0.3587,0.359,0.3646,0.3631,0.3606,0.3694,0.3648,0.3653,0.371,0.3722,0.3732,0.378,0.3583,0,0,0,0,0,0.3379,0.3401,0.3424,0.3444,0.3459,0.3497,0.3519,0.3537,0.3565,0.358,0.3596,0.3623,0.3664,0.3676,0.3697,0.3736,0.3762,0.3775,0.3785,0.3794,0.3835,0.3927,0.395,0.3699,0.3699,0.3699,0,0,0.3378,0.3403,0.3414,0.3444,0.3474,0.3511,0.3509,0.3549,0.3591,0.3579,0.3641,0.3663,0.3684,0.3736,0.3759,0.373,0.3872,0.3799,0.3807,0.3844,0.3934,0.3959,0.3981,0.3702,0.3701,0.3701,0,0,0.3393,0.3411,0.3436,0.3465,0.3512,0.3535,0.3553,0.3592,0.3618,0.3673,0.3692,0.374,0.3782,0.3811,0.3835,0.3912,0.393,0.3924,0.4009,0.4097,0.4119,0.4139,0.4174,0.4197,0.392,0.392,0.3921,0,0.3406,0.3427,0.3447,0.3488,0.3521,0.3553,0.3592,0.363,0.3675,0.3719,0.37,0.383,0.3825,0.3932,0.3961,0.3939,0.3986,0.396,0.4113,0.4134,0.4153,0.4184,0.4208,0.3925,0.3925,0.3924,0.3924,0,0.3435,0.3465,0.3488,0.3552,0.3587,0.3624,0.3673,0.3726,0.377,0.3813,0.3923,0.3934,0.4014,0.4021,0.402,0.4162,0.415,0.4123,0.4087,0.4185,0.4209,0.4233,0.3932,0.3931,0.3929,0.3928,0,0,0.3418,0.3497,0.3501,0.3546,0.3623,0.3655,0.3745,0.3829,0.3916,0.3969,0.408,0.4152,0.4183,0.4213,0.4219,0.4293,0.4435,0.4283,0.4285,0.4326,0.4627,0.4449,0.4456,0.446,0.4465,0.4469,0.4579,0,0.3438,0.3514,0.3546,0.3628,0.3672,0.3743,0.3831,0.3923,0.3993,0.4102,0.4169,0.4268,0.4248,0.4301,0.4381,0.4436,0.4509,0.4408,0.452,0.4523,0.4361,0.4481,0.4146,0.4204,0.4601,0.4605,0.4608,0,0.3449,0.3496,0.3579,0.3685,0.3713,0.3784,0.3937,0.4012,0.4176,0.4239,0.4364,0.4415,0.4553,0.4502,0.4677,0.4629,0.4656,0.4678,0.4681,0.4511,0.439,0.4177,0.4231,0.4646,0.4643,0.464,0.4638,0,0.3421,0.3516,0.3587,0.3625,0.3757,0.3834,0.3914,0.4072,0.416,0.4339,0.4436,0.4583,0.4664,0.4767,0.4804,0.478,0.4969,0.4915,0.4777,0.4762,0.4495,0.4447,0.5053,0.5052,0.5052,0.5052,0.5052,0,0.3432,0.348,0.3595,0.3629,0.3743,0.3842,0.3979,0.4088,0.4261,0.4366,0.4511,0.4606,0.475,0.4851,0.4881,0.4898,0.5028,0.4836,0.4805,0.4509,0.4463,0.486,0.4836,0.5056,0.5055,0.5054,0.5054,0,0.3417,0.3483,0.3557,0.3684,0.3736,0.3825,0.3998,0.4088,0.4275,0.442,0.4491,0.4678,0.4783,0.488,0.5005,0.4961,0.5003,0.4964,0.4578,0.4499,0.4719,0.4699,0.4853,0.4848,0.4844,0.4841,0.4838,0,0.3401,0.345,0.3576,0.3623,0.3691,0.3824,0.3907,0.4081,0.4162,0.4422,0.4474,0.4651,0.4691,0.4815,0.4782,0.4804,0.4906,0.4486,0.4365,0.4759,0.4713,0.4699,0.4684,0.404,0.4031,0.4024,0.4018,0,0.3374,0.3445,0.3514,0.3591,0.3673,0.375,0.3871,0.3925,0.4113,0.4234,0.4336,0.4403,0.4521,0.4366,0.4405,0.4367,0.4457,0.4329,0.4897,0.4122,0.3996,0.3949,0.3962,0.3951,0.3958,0.3963,0.3966,0.3969,0.3355,0.3374,0.3461,0.3532,0.3606,0.3617,0.3588,0.3696,0.3755,0.3842,0.4035,0.402,0.4091,0.3943,0.3839,0.3774,0.4069,0.3914,0.3937,0.3968,0.3833,0.3705,0.3579,0.3583,0.3587,0.3591,0.3594,0,0.3294,0.3322,0.3377,0.3394,0.338,0.3488,0.3507,0.3421,0.3355,0.3511,0.3554,0.331,0.3239,0.3311,0.3121,0.3131,0.3103,0.2998,0.295,0.302,0.3082,0.29,0.24,0.2395,0.2391,0.2388,0,0,0.3239,0.323,0.3223,0.3144,0.3165,0.3044,0.299,0.2908,0.2933,0.2849,0.2836,0.3092,0.3229,0.277,0.2729,0.2528,0.2742,0.2426,0.3397,0.3412,0.3468,0.3638,0.3441,0,0,0,0,0]},{"header":{"parameterUnit":"m.s-1","parameterCategory":2,"la1":30.2991,"la2":30.254,"lo1":-89.0895,"lo2":-89.0444,"dy":0.0017,"dx":0.0017,"nx":28,"ny":28,"refTime":"2023-10-19T03:00:00:Z","depth":"2","parameterNumber":3,"parameterNumberName":"V-component_of_CURRENTS"},"data":[0,0,0,0,0,0,0,0,0,0,0,0,0,0,0,0,0,0,0,0,0,0,0,0,0,0,0,0,0,0,0,0,0,0,0,0,0,0,0,0,0,0,0,0,0,0,0,0,0,0,0,0,0,0,0,0,0,0,0.0153,0.0153,0,0.0121,0.0121,0.012,0.0083,0.0082,0.0082,0.0082,0.0011,0.0009,0.0008,0,0,0,0,0,0,0,0,0,0,0,0,0,0.0148,0.0148,0.0153,0.0153,0.0153,0.0121,0.0121,0.012,0.0083,0.0082,0.0082,0.0081,0.0011,0.0009,0.0008,0,0,0,0,0,0,0,0,0,0,0,0,0,0.0135,0.0149,0.0153,0.0132,0.013,0.0122,0.0121,0.012,0.0083,0.0082,0.0082,0.0081,0.0012,0.001,0.0007,0.0004,0,0,0.0,-0.0001,0,0,0,0,0,0,0,0,0.0135,0.0135,0.0136,0.0134,0.0132,0.0108,0.0093,0.008,0.0083,0.0098,0.0082,0.0081,0.0041,0.0037,0.0029,0.0,-0.0003,-0.0,-0.0001,-0.0002,-0.0003,0,0,0,0,0,0,0,0.0136,0.0136,0.0138,0.0136,0.0133,0.0113,0.011,0.009,0.0071,0.0097,0.0095,0.0095,0.004,0.0031,0.0027,-0.0004,0.0,-0.0002,-0.0003,-0.0004,-0.0044,-0.0043,0,0,0,0,0,0,0.0148,0.0137,0.0139,0.0138,0.0135,0.0114,0.0111,0.0114,0.0072,0.0066,0.0096,0.0094,0.0036,0.003,0.0024,0.0032,-0.0002,-0.0005,-0.0006,-0.0044,-0.0043,-0.0043,0,0,0,0,0,0,0.0148,0.0148,0.0141,0.0138,0.0136,0.0115,0.0118,0.0114,0.0109,0.0072,0.0064,0.0097,0.0035,0.0028,0.0016,0.0028,-0.0006,-0.0008,-0.0044,-0.0044,-0.0043,0.0037,0,0,0,0,0,0,0.0148,0.0149,0.0153,0.0139,0.0137,0.0148,0.0119,0.0113,0.0111,0.0108,0.007,0.0063,0.0034,0.002,0.0014,0.0024,-0.001,-0.0045,-0.0044,-0.0043,0.0034,0.004,0.0045,0,0,0,0,0,0.0148,0.0164,0.0153,0.0154,0.0144,0.0149,0.0146,0.0127,0.0112,0.0118,0.0092,0.0064,0.0019,0.0019,0.0011,0.0021,-0.0045,-0.0044,-0.0043,0.0031,0.0039,0.0045,0,0,0,0,0,0,0.0165,0.0161,0.015,0.0163,0.016,0.0143,0.015,0.0134,0.0118,0.0114,0.0073,0.0065,0.0056,0.0028,0.0028,0.001,-0.002,-0.002,0.004,0.0046,0.0052,0.0088,-0.0012,0,0,0,0,0,0.0171,0.018,0.0173,0.0183,0.0186,0.0168,0.0166,0.0155,0.014,0.0133,0.0105,0.0075,0.0053,0.0043,0.0017,0.0014,-0.0013,0.0012,0.0018,0.0024,0.0047,0.0019,0.0025,-0.004,-0.004,-0.004,0,0,0.0181,0.0179,0.0183,0.0186,0.0182,0.0202,0.0165,0.0173,0.0186,0.0128,0.0133,0.0095,0.0056,0.0049,0.0042,0.0029,0.0024,0.0025,0.003,0.0051,0.0021,0.0027,0.0033,-0.004,-0.004,-0.004,0,0,0.0215,0.0205,0.0229,0.0232,0.0234,0.0227,0.0234,0.0223,0.0214,0.0213,0.0173,0.0149,0.0115,0.0092,0.0076,0.0099,0.0054,0.0084,0.0147,0.0119,0.0125,0.013,0.009,0.009,0.0089,0.0089,0.0089,0,0.0223,0.0257,0.0237,0.0263,0.0279,0.0246,0.0285,0.0271,0.0255,0.026,0.0226,0.0183,0.0139,0.0142,0.0144,0.0114,0.009,0.0125,0.0129,0.0133,0.0137,0.0094,0.0094,0.0093,0.0093,0.0092,0.0092,0,0.0283,0.0306,0.0324,0.0348,0.0359,0.0385,0.0375,0.0378,0.0358,0.0344,0.0336,0.0274,0.0256,0.0225,0.0192,0.0198,0.0168,0.0138,0.0117,0.0148,0.0101,0.0099,0.0099,0.0097,0.0096,0.0095,0,0,0.0313,0.0358,0.0364,0.0403,0.041,0.0437,0.0455,0.0477,0.0509,0.0457,0.0491,0.0423,0.0389,0.0368,0.0313,0.028,0.0262,0.023,0.0226,0.0201,0.0197,0.014,0.0131,0.0237,0.0237,0.0238,0.015,0,0.0369,0.0451,0.0451,0.053,0.058,0.0561,0.0596,0.0602,0.0589,0.0606,0.0532,0.0538,0.0443,0.0444,0.0393,0.0308,0.0264,0.0288,0.0162,0.0159,0.0112,0.013,0.0161,0.0083,0.0148,0.0147,0.0147,0,0.0432,0.0486,0.0578,0.0655,0.0676,0.0714,0.0778,0.0802,0.0798,0.0789,0.0761,0.0705,0.0657,0.057,0.0433,0.0456,0.0341,0.0254,0.0248,0.0172,0.0099,0.0062,0.0076,0.0143,0.0144,0.0144,0.0144,0,0.0496,0.0576,0.0663,0.0684,0.0757,0.0802,0.0843,0.0865,0.0917,0.0915,0.0952,0.0858,0.0841,0.0689,0.0492,0.0475,0.0331,0.028,0.0113,0.0106,0.0098,0.009,0.0183,0.0183,0.0183,0.0183,0.0184,0,0.0566,0.0636,0.0706,0.0757,0.0883,0.0894,0.1014,0.1034,0.1081,0.1166,0.1064,0.1094,0.0874,0.0756,0.0553,0.0331,0.0372,0.0136,0.0088,0.0123,0.0119,0.0147,0.0144,0.018,0.0181,0.0181,0.0182,0,0.0628,0.0665,0.0779,0.0877,0.0921,0.1015,0.1149,0.1229,0.1258,0.1365,0.138,0.1288,0.1125,0.0878,0.0626,0.0428,0.0208,0.0112,0.0158,0.0117,-0.0016,-0.0013,-0.0069,-0.0072,-0.0074,-0.0076,-0.0077,0,0.0671,0.0732,0.0876,0.0964,0.1019,0.1155,0.1255,0.132,0.141,0.1482,0.1543,0.1424,0.1341,0.0938,0.057,0.0212,0.0169,0.0004,-0.0034,0.0004,-0.0038,-0.0032,-0.0027,-0.0022,-0.0023,-0.0024,-0.0024,0,0.0761,0.0805,0.0905,0.1081,0.1207,0.1351,0.1496,0.1591,0.1672,0.1745,0.1787,0.1725,0.1356,0.0979,0.0493,0.0254,0.0062,-0.0026,0.0022,0.0033,0.004,0.0002,0.0007,-0.0031,-0.003,-0.003,-0.003,-0.0029,0.0833,0.0919,0.1045,0.1214,0.1359,0.1521,0.1633,0.1767,0.1903,0.2004,0.1941,0.1849,0.1464,0.0818,0.0398,-0.0028,-0.0001,-0.0147,-0.0141,-0.0134,-0.0117,-0.0115,-0.0212,-0.0213,-0.0213,-0.0213,-0.0213,0,0.0927,0.1019,0.1173,0.136,0.1505,0.1573,0.1772,0.1861,0.2002,0.2092,0.21,0.1713,0.1298,0.085,0.0212,-0.0165,-0.0173,-0.0285,-0.0208,-0.0198,-0.0189,-0.0172,-0.0285,-0.0286,-0.0287,-0.0289,0,0,0.0979,0.1128,0.1199,0.1441,0.1567,0.1745,0.1848,0.1974,0.2069,0.212,0.2073,0.1975,0.1439,0.0961,0.0447,0.0076,0.003,0.0007,0.0109,0.0272,0.0285,-0.0064,-0.0021,0,0,0,0,0]}],[{"header":{"parameterUnit":"m.s-1","parameterCategory":2,"la1":30.2991,"la2":30.254,"lo1":-89.0895,"lo2":-89.0444,"dy":0.0017,"dx":0.0017,"nx":28,"ny":28,"refTime":"2023-10-19T03:00:00:Z","depth":"4","parameterNumber":2,"parameterNumberName":"U-component_of_CURRENTS"},"data":[0,0,0,0,0,0,0,0,0,0,0,0,0,0,0,0,0,0,0,0,0,0,0,0,0,0,0,0,0,0,0,0,0,0,0,0,0,0,0,0,0,0,0,0,0,0,0,0,0,0,0,0,0,0,0,0,0,0,0.1852,0.1853,0,0.1913,0.1914,0.1914,0.1965,0.1966,0.1967,0.1967,0.208,0.2082,0.2085,0,0,0,0,0,0,0,0,0,0,0,0,0,0.1764,0.1765,0.1852,0.1853,0.1854,0.1913,0.1914,0.1914,0.1965,0.1966,0.1967,0.1968,0.2079,0.2082,0.2085,0,0,0,0,0,0,0,0,0,0,0,0,0,0.1809,0.1765,0.1852,0.1888,0.1892,0.1913,0.1914,0.1915,0.1965,0.1966,0.1967,0.1968,0.2078,0.2082,0.2085,0.2086,0,0,0.2096,0.2098,0,0,0,0,0,0,0,0,0.1807,0.1812,0.1882,0.1885,0.189,0.1934,0.1924,0.1975,0.1965,0.1936,0.1967,0.1969,0.2036,0.2043,0.2049,0.2091,0.2096,0.2096,0.2099,0.21,0.2101,0,0,0,0,0,0,0,0.1804,0.181,0.1875,0.1883,0.1888,0.1895,0.1903,0.1933,0.1979,0.1938,0.1942,0.1951,0.2039,0.2046,0.2053,0.2098,0.2096,0.2099,0.2102,0.2103,0.2273,0.2275,0,0,0,0,0,0,0.1799,0.1807,0.1873,0.1877,0.1852,0.1896,0.1904,0.1918,0.1978,0.1988,0.195,0.1953,0.2039,0.2048,0.2057,0.2175,0.21,0.2103,0.2105,0.227,0.2273,0.2276,0,0,0,0,0,0,0.1797,0.1805,0.1871,0.1844,0.1853,0.1897,0.1911,0.1918,0.1975,0.1987,0.1998,0.2005,0.2041,0.2052,0.2127,0.2175,0.2105,0.2108,0.2268,0.2271,0.2275,0.2338,0,0,0,0,0,0,0.1794,0.1803,0.183,0.1844,0.1855,0.1912,0.191,0.1919,0.1976,0.1982,0.2037,0.2045,0.2042,0.2122,0.2131,0.2179,0.2111,0.2264,0.2269,0.2273,0.2333,0.2343,0.2352,0,0,0,0,0,0.1791,0.1808,0.1831,0.184,0.1884,0.1914,0.1921,0.1953,0.1979,0.2008,0.2051,0.2046,0.2157,0.2127,0.2137,0.2187,0.2262,0.2268,0.2273,0.2329,0.2341,0.2352,0,0,0,0,0,0,0.1784,0.1815,0.184,0.1869,0.1908,0.1924,0.1957,0.1984,0.2039,0.2062,0.2076,0.2088,0.2169,0.2174,0.2141,0.225,0.221,0.2217,0.2249,0.2261,0.227,0.2269,0.2114,0,0,0,0,0,0.1795,0.1818,0.1854,0.1883,0.191,0.1948,0.1974,0.2,0.2039,0.2067,0.2102,0.2147,0.2189,0.2224,0.2254,0.2318,0.233,0.2358,0.2368,0.2376,0.2384,0.2448,0.2464,0.2294,0.2294,0.2293,0,0,0.1799,0.1821,0.1836,0.1885,0.1921,0.1957,0.1968,0.2022,0.2062,0.2071,0.215,0.2184,0.2215,0.228,0.2318,0.2298,0.2432,0.2383,0.239,0.2393,0.2455,0.2472,0.2486,0.2297,0.2297,0.2296,0,0,0.1802,0.1848,0.187,0.1905,0.1967,0.1993,0.2023,0.2074,0.2117,0.219,0.2207,0.227,0.234,0.2362,0.2383,0.2468,0.2479,0.2495,0.2549,0.2612,0.2626,0.2638,0.2673,0.2689,0.2503,0.2503,0.2503,0,0.1813,0.1845,0.1883,0.1915,0.1952,0.2017,0.2057,0.2103,0.2173,0.2216,0.2229,0.2349,0.2371,0.245,0.2481,0.2489,0.2527,0.2498,0.2623,0.2636,0.2648,0.2681,0.2697,0.2507,0.2506,0.2506,0.2506,0,0.1827,0.1867,0.1888,0.1951,0.1995,0.2045,0.211,0.2175,0.2243,0.2285,0.2397,0.2434,0.2509,0.2527,0.2534,0.2637,0.2638,0.2624,0.2589,0.2669,0.2698,0.2714,0.2512,0.2511,0.251,0.2509,0,0,0.1805,0.1884,0.1895,0.1934,0.2026,0.2059,0.2145,0.2235,0.2312,0.2389,0.2481,0.2557,0.2605,0.2633,0.2659,0.2711,0.2819,0.2719,0.2721,0.2745,0.2965,0.2778,0.2776,0.2847,0.285,0.2852,0.2951,0,0.1815,0.1869,0.1914,0.1985,0.2024,0.211,0.2184,0.2274,0.2369,0.2471,0.2541,0.2644,0.264,0.2707,0.2759,0.282,0.2866,0.2793,0.2892,0.2894,0.271,0.2789,0.2862,0.2963,0.2966,0.2969,0.2971,0,0.1813,0.185,0.1916,0.2011,0.2043,0.2109,0.2254,0.233,0.2477,0.2555,0.2668,0.2736,0.2852,0.2827,0.2966,0.2936,0.2961,0.2981,0.2985,0.2796,0.2735,0.2869,0.2998,0.2996,0.2994,0.2992,0.299,0,0.1763,0.1853,0.1911,0.1941,0.2058,0.2131,0.2223,0.2369,0.2461,0.2636,0.2727,0.2856,0.2957,0.3021,0.3081,0.3058,0.3203,0.3165,0.3006,0.2993,0.3102,0.3088,0.3239,0.3239,0.3239,0.3238,0.3238,0,0.1735,0.1778,0.1906,0.1929,0.2031,0.2128,0.2264,0.2373,0.2543,0.2652,0.279,0.2888,0.3022,0.3115,0.3133,0.3123,0.3254,0.3026,0.3012,0.3126,0.3113,0.3113,0.3097,0.3242,0.3241,0.324,0.324,0,0.1647,0.1735,0.1802,0.1944,0.2006,0.2086,0.2289,0.2374,0.2559,0.2708,0.2779,0.2969,0.3089,0.317,0.3276,0.318,0.3188,0.3139,0.3265,0.3255,0.2919,0.2906,0.2974,0.2969,0.2964,0.296,0.2956,0,0.1603,0.1623,0.1791,0.1853,0.193,0.207,0.2162,0.2366,0.2455,0.2728,0.2776,0.2974,0.3068,0.3072,0.316,0.3171,0.3121,0.3094,0.2986,0.2916,0.2897,0.2891,0.2884,0.2949,0.2948,0.2946,0.2945,0,0.1499,0.1578,0.1641,0.1768,0.1886,0.1981,0.2135,0.2194,0.2418,0.2606,0.2727,0.2798,0.291,0.2968,0.2995,0.299,0.3099,0.3043,0.3052,0.295,0.2886,0.287,0.2869,0.2928,0.2931,0.2932,0.2933,0,0.1433,0.146,0.1569,0.1664,0.18,0.1864,0.1959,0.2074,0.2199,0.2492,0.2526,0.2724,0.2897,0.2875,0.2906,0.2888,0.283,0.2716,0.274,0.2759,0.2636,0.2521,0.2451,0,0,0,0,0,0.1363,0.1377,0.1451,0.1563,0.1685,0.1762,0.1921,0.2013,0.2235,0.2265,0.2395,0.2491,0.2564,0.266,0.2594,0.2779,0.282,0.2687,0.2695,0.2836,0.2855,0.2727,0,0,0,0,0,0,0.1321,0.1383,0.1405,0.1456,0.1504,0.1624,0.1716,0.1859,0.1883,0.2115,0.2169,0.2339,0.244,0.2586,0.2552,0.2574,0.2525,0.2807,0.28,0.2825,0.2843,0.2858,0.2732,0,0,0,0,0]},{"header":{"parameterUnit":"m.s-1","parameterCategory":2,"la1":30.2991,"la2":30.254,"lo1":-89.0895,"lo2":-89.0444,"dy":0.0017,"dx":0.0017,"nx":28,"ny":28,"refTime":"2023-10-19T03:00:00:Z","depth":"4","parameterNumber":3,"parameterNumberName":"V-component_of_CURRENTS"},"data":[0,0,0,0,0,0,0,0,0,0,0,0,0,0,0,0,0,0,0,0,0,0,0,0,0,0,0,0,0,0,0,0,0,0,0,0,0,0,0,0,0,0,0,0,0,0,0,0,0,0,0,0,0,0,0,0,0,0,0.0132,0.0132,0,0.0114,0.0114,0.0114,0.0099,0.0099,0.0099,0.0099,0.0055,0.0053,0.0052,0,0,0,0,0,0,0,0,0,0,0,0,0,0.0122,0.0123,0.0132,0.0132,0.0132,0.0114,0.0114,0.0114,0.0099,0.0099,0.0099,0.0099,0.0055,0.0054,0.0052,0,0,0,0,0,0,0,0,0,0,0,0,0,0.0117,0.0123,0.0132,0.0123,0.0122,0.0114,0.0114,0.0114,0.0099,0.0099,0.0099,0.0099,0.0055,0.0054,0.0052,0.0044,0,0,0.0047,0.0046,0,0,0,0,0,0,0,0,0.0117,0.0117,0.0125,0.0124,0.0123,0.011,0.0094,0.0089,0.0099,0.0107,0.0099,0.0099,0.0071,0.0068,0.0064,0.0042,0.004,0.0047,0.0046,0.0045,0.0045,0,0,0,0,0,0,0,0.0118,0.0118,0.0124,0.0124,0.0123,0.0109,0.0109,0.0093,0.0089,0.0106,0.0105,0.0105,0.007,0.0066,0.0063,0.0039,0.0047,0.0045,0.0044,0.0044,0.0002,0.0002,0,0,0,0,0,0,0.0124,0.0118,0.0125,0.0124,0.0121,0.011,0.0109,0.0113,0.0089,0.0086,0.0105,0.0104,0.0069,0.0065,0.0061,0.0056,0.0045,0.0044,0.0043,0.0002,0.0002,0.0002,0,0,0,0,0,0,0.0124,0.0125,0.0126,0.0121,0.012,0.011,0.0115,0.0113,0.0112,0.0089,0.0085,0.0107,0.0068,0.0064,0.0053,0.0054,0.0043,0.0041,0.0002,0.0002,0.0002,0.0042,0,0,0,0,0,0,0.0123,0.0125,0.0128,0.0122,0.0121,0.0128,0.0115,0.0113,0.0112,0.0111,0.0089,0.0085,0.0068,0.0056,0.0051,0.0052,0.004,0.0002,0.0002,0.0002,0.0041,0.0044,0.0046,0,0,0,0,0,0.0123,0.0135,0.0128,0.0129,0.0126,0.0129,0.0127,0.0118,0.0112,0.0116,0.01,0.0085,0.0051,0.0054,0.0049,0.0049,0.0003,0.0002,0.0002,0.004,0.0043,0.0046,0,0,0,0,0,0,0.0135,0.0135,0.0127,0.0139,0.0135,0.0127,0.0131,0.0123,0.0113,0.0112,0.0088,0.0083,0.0072,0.0055,0.0059,0.0035,0.0022,0.0021,0.0053,0.0056,0.0058,0.008,0.0039,0,0,0,0,0,0.0139,0.0145,0.0141,0.0148,0.015,0.0139,0.0138,0.0134,0.0125,0.0121,0.0105,0.0085,0.0066,0.0058,0.004,0.003,-0.0001,0.0024,0.0027,0.0029,0.0042,-0.0015,-0.0016,0.0001,0.0001,0.0001,0,0,0.0145,0.0145,0.0149,0.0151,0.0147,0.0162,0.0139,0.0145,0.0154,0.0117,0.0123,0.0094,0.0066,0.0055,0.0048,0.0041,0.0006,0.0029,0.0031,0.0043,-0.0015,-0.0017,-0.0018,0.0001,0.0001,0.0001,0,0,0.0171,0.0163,0.0182,0.0183,0.0184,0.0178,0.0183,0.0177,0.0171,0.017,0.0142,0.0116,0.0096,0.0071,0.0057,0.006,0.0021,0.0051,0.0081,0.0025,0.0023,0.0021,-0.0024,-0.003,0.0051,0.0052,0.0052,0,0.0179,0.0205,0.0187,0.0208,0.0219,0.0191,0.022,0.0209,0.0198,0.0194,0.0179,0.0131,0.0104,0.0082,0.0085,0.0066,0.0032,0.0074,0.0028,0.0026,0.0023,-0.0023,-0.003,0.0053,0.0053,0.0053,0.0053,0,0.0225,0.0244,0.0257,0.0275,0.0279,0.0298,0.0286,0.0283,0.0268,0.0251,0.0225,0.0177,0.0151,0.0128,0.0112,0.008,0.0061,0.0038,0.0024,0.0024,-0.0025,-0.0033,0.0056,0.0055,0.0055,0.0054,0,0,0.0251,0.0285,0.029,0.0316,0.032,0.0333,0.0342,0.0344,0.035,0.0309,0.0305,0.0254,0.0218,0.0199,0.0155,0.0105,0.0052,0.0072,0.0068,0.0033,-0.0066,-0.0059,-0.0068,0.0018,0.0017,0.0016,-0.0094,0,0.0296,0.0356,0.0358,0.0413,0.0444,0.0425,0.0438,0.0428,0.0404,0.0386,0.0314,0.0295,0.0246,0.0232,0.0171,0.0086,0.0032,0.0084,-0.0065,-0.0068,-0.0058,-0.0076,0.0013,-0.01,-0.0102,-0.0104,-0.0105,0,0.0347,0.0381,0.0451,0.0491,0.0503,0.0532,0.0546,0.0555,0.0511,0.0489,0.0438,0.038,0.0309,0.0262,0.011,0.0145,0.0053,-0.0025,-0.0032,-0.0041,-0.0076,-0.0101,-0.0121,-0.0119,-0.0118,-0.0117,-0.0116,0,0.0385,0.0446,0.0508,0.0524,0.0562,0.0592,0.0609,0.0591,0.0606,0.0558,0.0552,0.0443,0.0401,0.0263,0.0109,0.0109,-0.0071,-0.0095,-0.0181,-0.0182,-0.0172,-0.0169,-0.0206,-0.0206,-0.0205,-0.0205,-0.0205,0,0.0433,0.0481,0.0539,0.0573,0.0649,0.0652,0.0711,0.0705,0.0697,0.0715,0.0617,0.0595,0.04,0.0273,0.0122,-0.0051,-0.0064,-0.0173,-0.021,-0.0154,-0.0147,-0.0179,-0.0175,-0.0209,-0.0208,-0.0207,-0.0207,0,0.0462,0.05,0.0576,0.0641,0.0675,0.0728,0.0799,0.0826,0.0816,0.0834,0.0827,0.0707,0.055,0.0342,0.0111,-0.0014,-0.0193,-0.0254,-0.0172,-0.0203,-0.0271,-0.0263,-0.0355,-0.0356,-0.0356,-0.0357,-0.0357,0,0.048,0.0526,0.0633,0.0688,0.0729,0.0811,0.0864,0.0888,0.092,0.0904,0.0911,0.0777,0.0672,0.0362,0.0131,-0.0166,-0.0208,-0.0305,-0.0293,-0.026,-0.0287,-0.0278,-0.027,-0.0358,-0.0358,-0.0358,-0.0359,0,0.0507,0.0552,0.0616,0.0738,0.0821,0.0907,0.0987,0.1023,0.1043,0.1035,0.0994,0.0831,0.0647,0.0387,0.0151,-0.0064,-0.0246,-0.0312,-0.0312,-0.0301,-0.0265,-0.0289,-0.028,-0.036,-0.036,-0.036,-0.036,0,0.0528,0.0577,0.0672,0.078,0.0884,0.0976,0.1017,0.1064,0.1101,0.1086,0.1069,0.0872,0.0754,0.0439,0.0221,0.0009,-0.0043,-0.0114,-0.0125,-0.0126,-0.0032,0.005,0.0022,0,0,0,0,0,0.0548,0.0609,0.0702,0.0823,0.0924,0.0992,0.1084,0.111,0.1137,0.1129,0.1108,0.0942,0.0634,0.0494,0.0288,0.0185,-0.0103,-0.0068,-0.0195,-0.0371,-0.0369,-0.0297,0,0,0,0,0,0,0.0557,0.065,0.0701,0.084,0.0924,0.104,0.1103,0.1123,0.1121,0.1118,0.0963,0.089,0.0588,0.076,0.0286,0.0218,0.0108,-0.0212,-0.0216,-0.0373,-0.0371,-0.0369,-0.0294,0,0,0,0,0]}]]